Weather History for Homestead AFB, FL

Change the Weather History Date:

Sunday, February 24, 2013

  Actual Average Record
Temperature  
Mean Temperature 78 °F -  
Max Temperature 87 °F 78 °F 89 °F (1944)
Min Temperature 68 °F 56 °F 37 °F (1964)
Cooling Degree Days 12    
Growing Degree Days 28 (Base 50)    
Moisture  
Dew Point 70 °F    
Average Humidity 88    
Maximum Humidity 100    
Minimum Humidity 55    
Precipitation  
Precipitation 0.00 in - - ()
Sea Level Pressure  
Sea Level Pressure 29.97 in    
Wind  
Wind Speed 3 mph (South)    
Max Wind Speed 14 mph    
Max Gust Speed 18 mph    
Visibility 5 miles    
Events Fog , Rain    
Averages and records for this station are not official NWS values.
T = Trace of Precipitation, MM = Missing Value Source: NWS Daily Summary

Daily Weather History Graph

Daily Weather History Graph

Search for Another Location

Airport:

Trip Planner

Search our weather history database for the weather conditions in past years. The results will help you decide how hot, cold, wet, or windy it might be!

Date:

Astronomy

Feb. 24, 2013 Rise Set
Actual Time 6:48 AM EST 6:20 PM EST
Civil Twilight 6:25 AM EST 6:43 PM EST
Nautical Twilight 5:58 AM EST 7:10 PM EST
Astronomical Twilight 5:32 AM EST 7:37 PM EST
Moon 5:30 PM EST (2/24) 5:42 AM EST (2/24)
Length of Visible Light 12h 18m
Length of Day
11h 31m
Waxing Gibbous, 99% of the Moon is Illuminated
Feb 24
Waxing Gibbous
Feb 25
Full
Mar 4
Last Quarter
Mar 11
New
Mar 19
First Quarter

Hourly Weather History & Observations

Time (EST) Temp. Heat Index Dew Point Humidity Pressure Visibility Wind Dir Wind Speed Gust Speed Precip Events Conditions
12:03 AM 71.6 °F - 71.6 °F 100% 29.99 in 1.5 mi South 2.3 mph - N/A   Scattered Clouds
12:18 AM 71.6 °F - 71.6 °F 100% 30.00 in 1.0 mi South 3.5 mph - N/A   Scattered Clouds
12:28 AM 69.8 °F - 69.8 °F 100% 30.00 in 1.5 mi SSW 3.5 mph - N/A   Mostly Cloudy
12:38 AM 71.6 °F - 71.6 °F 100% 29.99 in 3.0 mi South 3.5 mph - N/A   Mostly Cloudy
12:58 AM 71.6 °F - 71.6 °F 100% 30.00 in 4.0 mi South 3.5 mph - N/A   Mostly Cloudy
1:13 AM 71.6 °F - 71.6 °F 100% 29.99 in 8.0 mi South 2.3 mph - N/A   Clear
1:58 AM 71.6 °F - 71.6 °F 100% 29.99 in 4.0 mi South 3.5 mph - N/A   Scattered Clouds
2:08 AM 69.8 °F - 69.8 °F 100% 29.97 in 2.0 mi SSW 2.3 mph - N/A   Partly Cloudy
2:23 AM 69.8 °F - 69.8 °F 100% 29.96 in 2.0 mi South 2.3 mph - N/A   Mostly Cloudy
2:38 AM 69.8 °F - 69.8 °F 100% 29.96 in 3.0 mi South 3.5 mph - N/A   Mostly Cloudy
2:58 AM 71.6 °F - 71.6 °F 100% 29.97 in 1.5 mi South 2.3 mph - N/A   Scattered Clouds
3:12 AM 71.6 °F - 71.6 °F 100% 29.95 in 0.8 mi SSW 2.3 mph - N/A   Partly Cloudy
3:58 AM 69.8 °F - 69.8 °F 100% 29.96 in 0.5 mi Calm Calm - N/A Fog Fog
4:13 AM 69.8 °F - 69.8 °F 100% 29.95 in 0.5 mi Calm Calm - N/A Fog Fog
4:18 AM 69.8 °F - 69.8 °F 100% 29.95 in 0.2 mi Calm Calm - N/A Fog Fog
4:28 AM 69.8 °F - 69.8 °F 100% 29.95 in 0.4 mi Calm Calm - N/A Fog Fog
4:38 AM 69.8 °F - 69.8 °F 100% 29.95 in 0.2 mi Calm Calm - N/A Fog Fog
4:48 AM 69.8 °F - 69.8 °F 100% 29.95 in 0.4 mi Calm Calm - N/A Fog Fog
4:58 AM 68.0 °F - 68.0 °F 100% 29.96 in 0.8 mi Calm Calm - N/A   Mist
5:28 AM 69.8 °F - 68.0 °F 94% 29.96 in 0.5 mi Calm Calm - N/A Fog Fog
5:43 AM 68.0 °F - 68.0 °F 100% 29.96 in 0.2 mi Calm Calm - N/A Fog Fog
5:58 AM 68.0 °F - 68.0 °F 100% 29.97 in 0.5 mi SE 1.2 mph - N/A Fog Fog
6:58 AM 69.8 °F - 68.0 °F 94% 29.98 in 0.2 mi Calm Calm - N/A Fog Fog
7:58 AM 71.6 °F - 69.8 °F 94% 30.00 in 0.2 mi Calm Calm - N/A Fog Fog
8:28 AM 73.4 °F - 71.6 °F 94% 29.99 in 0.8 mi Calm Calm - N/A   Mist
8:33 AM 73.4 °F - 71.6 °F 94% 29.99 in 1.5 mi South 2.3 mph - N/A   Scattered Clouds
8:38 AM 75.2 °F - 73.4 °F 94% 30.00 in 6.0 mi South 2.3 mph - N/A   Scattered Clouds
8:58 AM 75.2 °F - 73.4 °F 94% 30.01 in 10.0 mi SSW 4.6 mph - N/A   Partly Cloudy
9:58 AM 77.0 °F - 75.2 °F 94% 30.02 in 10.0 mi South 5.8 mph - N/A   Partly Cloudy
10:58 AM 80.6 °F 87.1 °F 77.0 °F 89% 30.02 in 10.0 mi SSW 8.1 mph - N/A   Clear
11:58 AM 84.2 °F 87.3 °F 68.0 °F 58% 30.00 in 10.0 mi Variable 4.6 mph - N/A   Clear
12:31 PM 82.4 °F 86.3 °F 69.8 °F 66% 29.97 in 10.0 mi SE 2.3 mph - N/A Rain Light Rain
12:39 PM 84.2 °F 88.4 °F 69.8 °F 62% 29.97 in 10.0 mi Variable 4.6 mph - N/A   Clear
12:40 PM 84.2 °F 88.4 °F 69.8 °F 62% 29.96 in 10.0 mi Variable 4.6 mph - N/A Rain Light Rain
12:41 PM 84.2 °F 88.4 °F 69.8 °F 62% 29.96 in 10.0 mi South 5.8 mph - N/A   Clear
12:58 PM 82.4 °F 86.3 °F 69.8 °F 66% 29.97 in 10.0 mi NNE 1.2 mph - N/A   Partly Cloudy
1:58 PM 87.8 °F 92.6 °F 69.8 °F 55% 29.95 in 10.0 mi SSW 13.8 mph 18.4 mph N/A   Partly Cloudy
2:58 PM 84.2 °F 89.6 °F 71.6 °F 66% 29.94 in 10.0 mi East 5.8 mph - N/A   Scattered Clouds
3:05 PM 84.2 °F 89.6 °F 71.6 °F 66% 29.93 in 10.0 mi Variable 4.6 mph - N/A   Light Drizzle
3:15 PM 86.0 °F 89.4 °F 68.0 °F 55% 29.92 in 10.0 mi South 6.9 mph - N/A   Scattered Clouds
3:58 PM 86.0 °F 89.4 °F 68.0 °F 55% 29.93 in 10.0 mi South 9.2 mph - N/A   Clear
4:58 PM 84.2 °F 87.3 °F 68.0 °F 58% 29.93 in 10.0 mi South 11.5 mph - N/A   Partly Cloudy
5:58 PM 80.6 °F 83.9 °F 69.8 °F 70% 29.95 in 10.0 mi South 6.9 mph - N/A   Scattered Clouds
6:58 PM 77.0 °F - 69.8 °F 78% 29.95 in 10.0 mi South 3.5 mph - N/A   Mostly Cloudy
7:58 PM 75.2 °F - 69.8 °F 83% 29.96 in 10.0 mi East 1.2 mph - N/A   Scattered Clouds
8:58 PM 71.6 °F - 69.8 °F 94% 29.97 in 10.0 mi SSE 2.3 mph - N/A   Clear
9:58 PM 71.6 °F - 69.8 °F 94% 29.98 in 10.0 mi South 2.3 mph - N/A   Clear
10:58 PM 69.8 °F - 69.8 °F 100% 29.96 in 10.0 mi Calm Calm - N/A   Clear
11:48 PM 69.8 °F - 69.8 °F 100% 29.93 in 0.5 mi Calm Calm - N/A Fog Fog
11:53 PM 69.8 °F - 69.8 °F 100% 29.93 in 0.2 mi Calm Calm - N/A Fog Fog
11:58 PM 69.8 °F - 69.8 °F 100% 29.94 in 0.5 mi Calm Calm - N/A Fog Fog